TimePST,TemperatureF,Dew PointF,Humidity,Sea Level PressureIn,VisibilityMPH,Wind Direction,Wind SpeedMPH,Gust SpeedMPH,PrecipitationIn,Events,Conditions,WindDirDegrees,DateUTC
12:56 AM,46.9,33.1,59,30.25,10.0,ENE,12.7,-,N/A,,Partly Cloudy,70,2008-01-01 08:56:00
1:56 AM,45.0,35.1,68,30.25,10.0,East,3.5,-,N/A,,Clear,90,2008-01-01 09:56:00
2:56 AM,41.0,33.1,73,30.25,10.0,Calm,Calm,-,N/A,,Clear,0,2008-01-01 10:56:00
3:56 AM,39.9,33.1,77,30.25,10.0,South,4.6,-,N/A,,Clear,180,2008-01-01 11:56:00
4:56 AM,39.9,32.0,73,30.26,10.0,SSE,6.9,-,N/A,,Clear,160,2008-01-01 12:56:00
5:56 AM,45.0,36.0,71,30.27,10.0,East,8.1,-,N/A,,Clear,80,2008-01-01 13:56:00
6:56 AM,39.9,35.1,83,30.28,10.0,SE,4.6,-,N/A,,Clear,140,2008-01-01 14:56:00
7:56 AM,39.9,34.0,79,30.28,10.0,SSE,6.9,-,N/A,,Mostly Cloudy,150,2008-01-01 15:56:00
8:56 AM,44.1,35.1,71,30.29,10.0,SE,4.6,-,N/A,,Scattered Clouds,140,2008-01-01 16:56:00
9:56 AM,46.0,35.1,66,30.30,9.0,SE,5.8,-,N/A,,Scattered Clouds,140,2008-01-01 17:56:00
10:56 AM,48.0,36.0,63,30.29,10.0,SSE,3.5,-,N/A,,Scattered Clouds,160,2008-01-01 18:56:00
11:56 AM,50.0,37.9,63,30.27,9.0,Calm,Calm,-,N/A,,Scattered Clouds,0,2008-01-01 19:56:00
12:56 PM,52.0,39.0,61,30.24,10.0,ESE,3.5,-,N/A,,Scattered Clouds,120,2008-01-01 20:56:00
1:56 PM,54.0,39.9,59,30.21,10.0,Calm,Calm,-,N/A,,Mostly Cloudy,0,2008-01-01 21:56:00
2:56 PM,53.1,39.0,59,30.19,10.0,Calm,Calm,-,N/A,,Mostly Cloudy,0,2008-01-01 22:56:00
3:56 PM,53.1,41.0,64,30.18,8.0,Calm,Calm,-,N/A,,Mostly Cloudy,0,2008-01-01 23:56:00
4:56 PM,51.1,39.9,66,30.18,8.0,Calm,Calm,-,N/A,,Mostly Cloudy,0,2008-01-02 00:56:00
5:56 PM,52.0,39.0,61,30.17,10.0,SE,3.5,-,N/A,,Scattered Clouds,140,2008-01-02 01:56:00
6:56 PM,50.0,39.9,68,30.17,10.0,Calm,Calm,-,N/A,,Partly Cloudy,0,2008-01-02 02:56:00
7:56 PM,48.9,39.9,71,30.16,10.0,Calm,Calm,-,N/A,,Partly Cloudy,0,2008-01-02 03:56:00
8:56 PM,46.9,39.9,77,30.16,9.0,SSE,3.5,-,N/A,,Partly Cloudy,160,2008-01-02 04:56:00
9:56 PM,46.9,41.0,80,30.17,9.0,Calm,Calm,-,N/A,,Partly Cloudy,0,2008-01-02 05:56:00
10:56 PM,46.0,41.0,83,30.17,10.0,SE,4.6,-,N/A,,Partly Cloudy,130,2008-01-02 06:56:00
11:56 PM,44.1,37.9,79,30.16,9.0,South,4.6,-,N/A,,Clear,180,2008-01-02 07:56:00